Flag for Germany Weather past 2 weeks in Aachen, North Rhine-Westphalia, Germany

Now
91 °F

Sunny.


Feels Like: 91 °F
Forecast: 67 / 95 °F
Wind: 18 mph from East

Location: Geilenkirchen Airport

Current Time: Jul 1, 2015 at 3:16:06 PM

Latest Report: Jul 1, 2015 at 2:50 PM


Visibility: 10 mi

Pressure: 30.01 "Hg

Humidity: 36%

Dew point: 61 °F

Location of AachenLocation

Historic Weather in Aachen — Graph

°F

Aachen temperature yesterday

Maximum temperature yesterday: 84 °F (at 3:50 PM)
Minimum temperature yesterday: 54 °F (at 4:50 AM)
Average temperature yesterday: 72 °F

Past Weeks' High & Low Weather Summary

 TemperatureHumidityPressure
High90 °F (Jul 1, 1:50 PM)94% (Jun 18, 6:50 AM)30.30 "Hg (Jun 18, 6:50 AM)
Low43 °F (Jun 17, 3:50 AM)29% (Jun 30, 7:50 PM)29.71 "Hg (Jun 22, 7:50 PM)
Average63 °F66%30.10 "Hg
* Reported Jun 16 1:50 PM — Jul 1 1:50 PM, Aachen, Weather by CustomWeather, © 2015

Note: Actual official high and low records may vary slightly from our data, if they occured in-between our weather recording intervals... More about our weather records

Advertising

Aachen weather history for previous 24 hours

 ConditionsComfort  
Time TempWeatherWind HumidityBarometerVisibility
1:50 PM
Wed, Jul 1
90 °FSunny.18 mph36%30.04 "Hg10 mi
12:50 PM88 °FSunny.14 mph38%30.04 "Hg10 mi
11:50 AM84 °FSunny.15 mph43%30.07 "Hg10 mi
10:50 AM81 °FSunny.15 mph45%30.07 "Hg10 mi
9:50 AM77 °FSunny.12 mph47%30.07 "Hg10 mi
8:50 AM73 °FSunny.13 mph53%30.07 "Hg10 mi
7:50 AM68 °FSunny.9 mph60%30.07 "Hg10 mi
6:50 AM66 °FSunny.10 mph60%30.07 "Hg10 mi
5:50 AM64 °FClear.12 mph64%30.07 "Hg10 mi
4:50 AM66 °FClear.7 mph60%30.07 "Hg10 mi
3:50 AM66 °FClear.9 mph64%30.07 "Hg10 mi
2:50 AM68 °FClear.9 mph60%30.07 "Hg10 mi
1:50 AM68 °FClear.7 mph64%30.09 "Hg10 mi
12:50 AM70 °FClear.6 mph60%30.09 "Hg10 mi
11:50 PM
Tue, Jun 30
68 °FClear.9 mph60%30.09 "Hg10 mi
10:50 PM70 °FSunny.6 mph53%30.09 "Hg10 mi
9:50 PM73 °FSunny.5 mph44%30.09 "Hg10 mi
8:50 PM81 °FSunny.8 mph32%30.09 "Hg10 mi
7:50 PM84 °FSunny.12 mph29%30.09 "Hg10 mi
6:50 PM84 °FSunny.12 mph31%30.09 "Hg10 mi
5:50 PM84 °FSunny.10 mph31%30.09 "Hg10 mi
4:50 PM84 °FSunny.12 mph35%30.12 "Hg10 mi
3:50 PM84 °FSunny.7 mph31%30.12 "Hg10 mi
Weather by CustomWeather, © 2015

See weather overviewHow to use our weather pages